This is the latest recevied weather packets stored in our database for station/object KQ4PPF. If no packets are shown the sender has not sent any weather packets the latest 10 day(s).
| Time | Temp. | Humidity | Pressure | Rain* | Wind** | Luminosity | Snow |
|---|---|---|---|---|---|---|---|
| 1777477311 | 21.67° C | 85% | 1012.7 hPa | 0 mm | - | 158 W/m² | - |
| 1777477008 | 22.22° C | 84% | 1012.8 hPa | 0 mm | - | 77 W/m² | - |
| 1777476705 | 22.22° C | 86% | 1012.7 hPa | 0 mm | - | 368 W/m² | - |
| 1777476401 | 22.22° C | 85% | 1012.8 hPa | 0 mm | - | 848 W/m² | - |
| 1777476098 | 22.22° C | 86% | 1013 hPa | 0 mm | - | 252 W/m² | - |
| 1777475793 | 21.67° C | 86% | 1012.6 hPa | 0 mm | - | 236 W/m² | - |
| 1777475490 | 21.11° C | 88% | 1012.7 hPa | 0 mm | - | 858 W/m² | - |
| 1777475186 | 21.11° C | 89% | 1013 hPa | 0 mm | - | 174 W/m² | - |
| 1777474882 | 20.56° C | 90% | 1013 hPa | 0 mm | - | 155 W/m² | - |
| 1777474577 | 20.56° C | 91% | 1013.2 hPa | 0 mm | - | 129 W/m² | - |
| 1777474275 | 20.56° C | 90% | 1013.1 hPa | 0 mm | - | 125 W/m² | - |
| 1777473972 | 20° C | 94% | 1013.1 hPa | 0 mm | - | 375 W/m² | - |
| 1777473670 | 19.44° C | 95% | 1012.8 hPa | 0 mm | - | 178 W/m² | - |
| 1777473365 | 18.89° C | 96% | 1013.1 hPa | 0 mm | - | 146 W/m² | - |
| 1777473062 | 18.89° C | 95% | 1013.4 hPa | 0 mm | - | 85 W/m² | - |
| 1777472758 | 18.89° C | 95% | 1012.8 hPa | 0 mm | - | 86 W/m² | - |
| 1777472455 | 18.89° C | 95% | 1013 hPa | 0 mm | - | 141 W/m² | - |
| 1777472152 | 18.89° C | 96% | 1013.1 hPa | 0 mm | - | 111 W/m² | - |
| 1777471851 | 18.89° C | 97% | 1012.9 hPa | 0 mm | - | 163 W/m² | - |
| 1777471548 | 18.33° C | 97% | 1012.9 hPa | 0 mm | - | 142 W/m² | - |
| 1777471245 | 18.33° C | 97% | 1013.1 hPa | 0 mm | - | 74 W/m² | - |
| 1777470942 | 18.33° C | 98% | 1013.2 hPa | 0 mm | - | 107 W/m² | - |
| 1777470639 | 17.78° C | 98% | 1013.1 hPa | 0 mm | - | 90 W/m² | - |
| 1777470334 | 17.78° C | 98% | 1012.9 hPa | 0 mm | - | 82 W/m² | - |
| 1777470032 | 17.78° C | 98% | 1012.7 hPa | 0 mm | - | 65 W/m² | - |
* Rain latest hour (hover to see other rain measurements)
** Current wind speed in m/s (hover to see current wind gust speed)